Simultaneous Nadir Overpasses (SNOs) Predictions

Prediction of SNOs between LANDSAT-8 and METOP-B Satellite Orbit:

Table of predicted SNOs for the next 14.0 days since TLE Epoch: 12/8/2013
Index Date (LANDSAT-8) Time (LANDSAT-8) Lat,Lon (LANDSAT-8) SZA (LANDSAT-8 ) Date (METOP-B) Time (METOP-B) Lat,Lon (METOP-B) SZA (METOP-B ) Distance(km) Time Diff (sec)
1 12/09/2013 05:41:50 -81.07, -46.26 74.05 12/09/2013 05:41:18 -81.08, -46.13 74.04 2.51 32
2 12/09/2013 06:31:15 81.10, 121.74 106.01 12/09/2013 06:31:57 81.09, 121.58 106.01 2.66 42
3 12/12/2013 01:16:03 -81.07, 20.17 73.84 12/12/2013 01:15:42 -81.07, 20.09 73.86 1.43 21
4 12/12/2013 02:05:27 81.12,-171.50 106.27 12/12/2013 02:06:19 81.11,-171.48 106.29 0.63 52
5 12/14/2013 20:50:16 -81.08, 86.79 73.67 12/14/2013 20:50:06 -81.08, 86.61 73.69 3.19 10
6
